Location: Unspecified
(48.5670°N, 0.0000°E)
Time: 03:51:20
(UTC+00:00)

ITUPSAT 1 - Visible Passes

Search period start: 23 October 2020 00:00
Search period end: 02 November 2020 00:00
Orbit: 701 x 714 km, 98.6° (Epoch: 22 October)

Date Brightness Start Highest point End Pass type
(mag) Time Alt. Az. Time Alt. Az. Time Alt. Az.
23 Oct ? 04:37:09 10° SE 04:41:20 31° ENE 04:45:31 10° N visible
23 Oct ? 18:10:36 10° NNE 18:15:06 40° E 18:19:34 10° SSE visible
23 Oct ? 19:48:41 10° N 19:52:45 28° WNW 19:56:47 10° WSW visible
24 Oct ? 03:46:27 10° ENE 03:48:22 12° NE 03:50:17 10° NNE visible
24 Oct ? 05:20:36 10° SSE 05:25:20 75° ENE 05:30:07 10° NNW visible
24 Oct ? 18:54:37 10° NNE 18:59:24 81° WNW 19:04:10 10° SSW visible
24 Oct ? 20:34:13 10° NNW 20:36:27 13° NW 20:38:41 10° W visible
25 Oct ? 04:28:06 10° ESE 04:32:02 26° ENE 04:35:59 10° N visible
25 Oct ? 18:01:20 10° NNE 18:05:39 33° E 18:09:57 10° SSE visible
25 Oct ? 19:39:10 10° N 19:43:26 34° WNW 19:47:42 10° SW visible
26 Oct ? 03:38:28 10° ENE 03:39:08 10° NE 03:39:48 10° NE visible
26 Oct ? 05:11:18 10° SSE 05:15:59 61° ENE 05:20:42 10° N visible
26 Oct ? 18:45:14 10° NNE 18:50:01 83° ESE 18:54:47 10° SSW visible
26 Oct ? 20:24:22 10° NNW 20:27:12 16° WNW 20:30:00 10° W visible
27 Oct ? 04:19:06 10° ESE 04:22:45 22° ENE 04:26:24 10° N visible
27 Oct ? 05:55:32 10° S 06:00:12 55° W 06:04:54 10° NNW visible
27 Oct ? 17:52:07 10° NE 17:56:12 27° E 18:00:15 10° SSE visible
27 Oct ? 19:29:39 10° N 19:34:07 41° WNW 19:38:33 10° SW visible
28 Oct ? 05:02:02 10° SE 05:06:38 50° ENE 05:11:14 10° N visible
28 Oct ? 18:35:51 10° NNE 18:40:37 68° ESE 18:45:22 10° S visible
28 Oct ? 20:14:40 10° NNW 20:17:56 19° WNW 20:21:12 10° WSW visible
29 Oct ? 04:10:11 10° ESE 04:13:28 19° ENE 04:16:45 10° NNE visible
29 Oct ? 05:46:03 10° S 05:50:47 67° WSW 05:55:33 10° NNW visible
29 Oct ? 17:42:58 10° NE 17:46:43 23° E 17:50:27 10° SE visible
29 Oct ? 19:20:10 10° N 19:24:46 49° WNW 19:29:21 10° SW visible
30 Oct ? 04:52:50 10° SE 04:57:18 41° ENE 05:01:46 10° N visible
30 Oct ? 18:26:31 10° NNE 18:31:13 55° E 18:35:53 10° S visible
30 Oct ? 20:05:02 10° N 20:08:39 22° WNW 20:12:17 10° WSW visible
31 Oct ? 04:01:22 10° E 04:04:12 16° ENE 04:07:03 10° NNE visible
31 Oct ? 05:36:37 10° SSE 05:41:23 82° WSW 05:46:11 10° NNW visible
31 Oct ? 17:33:53 10° NE 17:37:13 19° E 17:40:34 10° SE visible
31 Oct ? 19:10:43 10° N 19:15:25 60° WNW 19:20:07 10° SSW visible
31 Oct ? 20:51:44 10° NW 20:52:16 10° NW 20:52:47 10° WNW visible
01 Nov ? 04:43:41 10° SE 04:47:58 34° ENE 04:52:15 10° N visible
01 Nov ? 18:17:12 10° NNE 18:21:47 45° E 18:26:21 10° S visible
01 Nov ? 19:55:26 10° N 19:59:22 26° WNW 20:03:17 10° WSW visible
